Flag for Indonesia Weather past 2 weeks in Makassar, South Sulawesi, Indonesia

Now
73 °F

Passing clouds.


Feels Like: 73 °F
Forecast: 76 / 91 °F
Wind: 3 mph from Southeast

Location: Ujung Pandang / Hasanuddin

Current Time: Aug 21, 2014 at 6:25:12 AM

Latest Report: Aug 21, 2014 at 6:00 AM


Visibility: N/A

Pressure: 29.86 "Hg

Humidity: 83%

Dew point: 68 °F

Location of MakassarLocation

Historic Weather in Makassar — Graph

°F

Makassar temperature yesterday

Maximum temperature yesterday: 90 °F (at 1:00 PM)
Minimum temperature yesterday: 73 °F (at 4:00 AM)
Average temperature yesterday: 80 °F

Past Weeks' High & Low Weather Summary

 TemperatureHumidityPressure
High93 °F (Aug 18, 12:30 PM)100% (Aug 7, 11:00 PM)29.95 "Hg (Aug 7, 11:00 PM)
Low68 °F (Aug 11, 4:00 AM)40% (Aug 13, 5:00 PM)29.77 "Hg (Aug 8, 2:30 PM)
Average80 °F74%29.87 "Hg
* Reported Aug 6 5:00 AM — Aug 21 5:00 AM, Makassar, Weather by CustomWeather, © 2014

Note: Actual official high and low records may vary slightly from our data, if they occured in-between our weather recording intervals... More about our weather records

Advertising

Makassar weather history for previous 24 hours

 ConditionsComfort  
Time TempWeatherWind HumidityBarometerVisibility
5:00 AM
Aug 21
73 °FPassing clouds.3 mph83%29.83 "Hg5 mi
4:30 AM73 °FPassing clouds.3 mph89%29.83 "Hg5 mi
4:00 AM73 °FPassing clouds.2 mph83%29.83 "Hg5 mi
3:30 AM73 °FPassing clouds.2 mph83%29.83 "Hg5 mi
3:00 AM73 °FPassing clouds.2 mph89%29.83 "Hg5 mi
2:30 AM75 °FPassing clouds.3 mph83%29.86 "Hg5 mi
2:00 AM75 °FPassing clouds.3 mph83%29.86 "Hg5 mi
1:30 AM75 °FPassing clouds.3 mph78%29.86 "Hg5 mi
1:00 AM75 °FPassing clouds.3 mph83%29.86 "Hg5 mi
12:30 AM75 °FPassing clouds.5 mph83%29.89 "Hg5 mi
12:00 AM75 °FPassing clouds.2 mph89%29.89 "Hg5 mi
11:30 PM
Aug 20
75 °FPassing clouds.2 mph89%29.89 "Hg5 mi
11:00 PM77 °FPassing clouds.3 mph83%29.92 "Hg5 mi
10:30 PM77 °FPassing clouds.3 mph83%29.89 "Hg5 mi
10:00 PM77 °FPassing clouds.3 mph89%29.89 "Hg5 mi
9:30 PM77 °FPassing clouds.2 mph83%29.89 "Hg5 mi
9:00 PM77 °FPassing clouds.2 mph83%29.89 "Hg5 mi
8:30 PM77 °FPassing clouds.3 mph89%29.89 "Hg5 mi
8:00 PM77 °FPassing clouds.2 mph94%29.86 "Hg5 mi
7:30 PM77 °FPassing clouds.2 mph94%29.86 "Hg5 mi
7:00 PM77 °FPassing clouds.2 mph94%29.86 "Hg5 mi
6:30 PM77 °FPassing clouds.3 mph94%29.86 "Hg5 mi
6:00 PM77 °FPassing clouds.3 mph94%29.83 "HgN/A
5:30 PM79 °FPassing clouds.5 mph89%29.83 "HgN/A
5:00 PM77 °FLight rain. Scattered clouds.7 mph89%29.83 "Hg5 mi
4:30 PM82 °FScattered clouds.8 mph74%29.83 "Hg5 mi
4:00 PM82 °FScattered clouds.7 mph79%29.80 "Hg5 mi
3:30 PM84 °FThunderstorms. Scattered clouds.7 mph70%N/A5 mi
3:00 PM86 °FLight rain. Scattered clouds.7 mph70%29.80 "Hg5 mi
2:30 PM88 °FScattered clouds.7 mph59%29.83 "Hg6 mi
2:00 PM90 °FPassing clouds.10 mph59%29.83 "HgN/A
1:30 PM90 °FPassing clouds.5 mph52%29.83 "HgN/A
1:00 PM90 °FPassing clouds.5 mph52%29.86 "Hg6 mi
12:30 PM88 °FPassing clouds.3 mph55%29.86 "Hg6 mi
12:00 PM88 °FPassing clouds.2 mph55%29.89 "Hg6 mi
11:30 AM86 °FPassing clouds.3 mph59%29.89 "Hg5 mi
11:00 AM86 °FPassing clouds.3 mph62%29.92 "Hg5 mi
10:30 AM86 °FPassing clouds.3 mph62%29.92 "Hg6 mi
10:00 AM84 °FPassing clouds.5 mph66%29.92 "Hg6 mi
9:30 AM84 °FPassing clouds.5 mph66%29.92 "Hg6 mi
9:00 AM82 °FPassing clouds.5 mph70%29.92 "Hg6 mi
8:30 AM81 °FPassing clouds.3 mph74%29.92 "Hg6 mi
8:00 AM79 °FPassing clouds.2 mph79%29.92 "Hg6 mi
7:30 AM77 °FPassing clouds.3 mph83%29.92 "Hg6 mi
7:00 AM75 °FPassing clouds.3 mph89%29.89 "Hg6 mi
6:30 AM75 °FPassing clouds.3 mph83%29.89 "Hg6 mi
6:00 AM75 °FPassing clouds.2 mph83%29.89 "Hg5 mi
Weather by CustomWeather, © 2014

See weather overviewHow to use our weather pages